Powrót do katalogu

TITAN 3C TRANSTAGE R/B

AktywnyGEO
NORAD 11940·ROCKET BODY·🇺🇸 United States

Wystrzelony Jun 12, 1973 z Cape Canaveral Space Force Station

Loading…

TLE

ŚwieżeSource: Space-Track

Epoka: Sep 14, 2026, 03:51 UTC

1 11940U 73040B   26257.16084418 -.00000263  00000-0  00000-0 0  9995
2 11940   0.8824 219.2258 0029730 105.9451  34.6397  0.99562259 27518

Śledź TITAN 3C TRANSTAGE R/B w czasie rzeczywistym z AllMySat

Download on the App Store